This is the latest recevied weather packets stored in our database for station/object IT9CNT. If no packets are shown the sender has not sent any weather packets the latest 1 day(s).
| Time | Temp. | Humidity | Pressure | Rain* | Wind** | Luminosity | Snow |
|---|---|---|---|---|---|---|---|
| 1778016663 | 16.11° C | 73% | 1012.9 hPa | 0 mm | 3.13 m/s, 80° | - | - |
| 1778016603 | 16.11° C | 74% | 1012.8 hPa | 0 mm | 3.13 m/s, 81° | - | - |
| 1778016543 | 16.11° C | 74% | 1012.9 hPa | 0 mm | 3.13 m/s, 82° | - | - |
| 1778016483 | 16.67° C | 75% | 1013.1 hPa | 0 mm | 3.13 m/s, 88° | - | - |
| 1778016424 | 16.67° C | 75% | 1012.9 hPa | 0 mm | 3.13 m/s, 90° | - | - |
| 1778016364 | 16.67° C | 75% | 1013 hPa | 0 mm | 2.68 m/s, 90° | - | - |
| 1778016303 | 16.67° C | 75% | 1012.8 hPa | 0 mm | 2.68 m/s, 88° | - | - |
| 1778016244 | 16.67° C | 75% | 1012.8 hPa | 0 mm | 2.68 m/s, 88° | - | - |
| 1778016183 | 16.67° C | 75% | 1012.8 hPa | 0 mm | 2.68 m/s, 84° | - | - |
| 1778016124 | 16.67° C | 75% | 1013 hPa | 0 mm | 3.13 m/s, 83° | - | - |
| 1778016066 | 16.67° C | 75% | 1012.8 hPa | 0 mm | 2.68 m/s, 90° | - | - |
| 1778016003 | 16.67° C | 75% | 1012.8 hPa | 0 mm | 2.68 m/s, 88° | - | - |
| 1778015943 | 16.67° C | 75% | 1012.8 hPa | 0 mm | 2.68 m/s, 88° | - | - |
| 1778015883 | 16.67° C | 75% | 1012.8 hPa | 0 mm | 2.68 m/s, 87° | - | - |
| 1778015823 | 16.67° C | 75% | 1012.6 hPa | 0 mm | 2.68 m/s, 89° | - | - |
| 1778015763 | 16.67° C | 75% | 1012.9 hPa | 0 mm | 2.68 m/s, 95° | - | - |
| 1778015703 | 16.67° C | 75% | 1012.8 hPa | 0 mm | 2.68 m/s, 100° | - | - |
| 1778015643 | 16.67° C | 75% | 1012.8 hPa | 0 mm | 2.68 m/s, 99° | - | - |
| 1778015583 | 16.67° C | 75% | 1012.8 hPa | 0 mm | 3.13 m/s, 101° | - | - |
| 1778015523 | 16.67° C | 75% | 1012.7 hPa | 0 mm | 3.13 m/s, 103° | - | - |
| 1778015463 | 16.67° C | 75% | 1012.8 hPa | 0 mm | 3.13 m/s, 100° | - | - |
| 1778015403 | 16.67° C | 75% | 1012.9 hPa | 0 mm | 3.13 m/s, 100° | - | - |
| 1778015283 | 16.67° C | 75% | 1012.7 hPa | 0 mm | 3.13 m/s, 101° | - | - |
| 1778015223 | 16.67° C | 75% | 1012.8 hPa | 0 mm | 3.13 m/s, 101° | - | - |
| 1778015163 | 16.67° C | 75% | 1012.8 hPa | 0 mm | 3.13 m/s, 101° | - | - |
* Rain latest hour (hover to see other rain measurements)
** Current wind speed in m/s (hover to see current wind gust speed)